Regional Weather Roundup
Issued by NWS

Home | Current Version | Previous Version | Text Only | Print | Product List | Glossary On
Versions: 1 2 3 4 5 6 7 8 9 10 11 12 13 14 15 16 17 18 19 20 21 22 23 24 25 26 27 28 29 30 31 32 33 34 35 36 37 38 39 40 41 42 43 44 45 46 47 48 49 50
000
ASUS43 KMPX 270701
RWRMN
WEATHER ROUNDUP FOR MINNESOTA
NATIONAL WEATHER SERVICE TWIN CITIES/CHANHASSEN MN
100 AM CST MON FEB 27 2017


NOTE: "FAIR" INDICATES FEW OR NO CLOUDS BELOW 12,000 FEET WITH NO
SIGNIFICANT WEATHER AND/OR OBSTRUCTIONS TO VISIBILITY. N/A MEANS
CURRENT SKY AND/OR WEATHER CONDITIONS ARE NOT AVAILABLE.

MNZ060>063-068>070-270800-
   Twin Cities Metro

CITY           SKY/WX    TMP DP  RH WIND       PRES   REMARKS
TWIN CITIES    MOCLDY    28  17  63 SE6       29.96S WCI  22
ST PAUL        MOCLDY    28  19  69 S5        29.97S WCI  23
CRYSTAL        CLOUDY    28  13  53 CALM      29.94S
BLAINE         CLOUDY    30  18  59 CALM      29.95S
LAKEVILLE      PTCLDY    25  23  93 CALM      29.96S
EDEN PRAIRIE   MOCLDY    25  17  72 SE7       29.94S WCI  17
SOUTH ST PAUL  CLOUDY    30  22  71 S3        29.96S
LAKE ELMO      CLOUDY    30  23  74 S7        29.97S WCI  23
$$
MNZ001>005-007-008-013>017-022>024-027-028-270800-
   Northwest Minnesota

CITY           SKY/WX    TMP DP  RH WIND       PRES   REMARKS
BEMIDJI        CLEAR      4   1  86 CALM      29.89R
HALLOCK        CLOUDY    12   9  85 S8        29.87S WCI   1
ROSEAU         CLEAR     10   7  85 SW9       29.86R WCI  -2
WARROAD        CLEAR      9   3  78 SW7       29.86S WCI  -3
THIEF RVR FALL   N/A    N/A N/A N/A MISG        N/A
CROOKSTON      CLEAR      9   7  92 S3        29.92S
FOSSTON        CLEAR      7   3  85 S6        29.90S WCI  -3
DETROIT LAKES  MOCLDY    19  12  73 S5        29.90S WCI  13
MOORHEAD       CLOUDY    19  12  73 S6        29.92S WCI  11
PARK RAPIDS    CLOUDY    14   7  73 CALM      29.90R
MAHNOMEN       PTSUNNY   12   8  83 S3        29.90S
$$
MNZ006-009>011-018-025>026-270800-
   North Central Minnesota

CITY           SKY/WX    TMP DP  RH WIND       PRES   REMARKS
BAUDETTE       CLEAR      6   1  80 SW5       29.86S WCI  -3
FLAG ISLAND    PTCLDY    10   5  79 SW10      29.83S WCI  -3
INTL FALLS     CLEAR      3  -2  79 S3        29.88S
WASKISH        PTCLDY     3   1  92 S3        29.89S
BIG FORK       CLEAR     -4  -9  77 CALM      29.90R
LONGVILLE      CLOUDY     9   3  78 CALM      29.92R
GRAND RAPIDS   CLOUDY     3  -1  83 CALM      29.93R
CRANE LAKE     CLEAR     -4  -8  84 CALM      29.93R
ORR            CLEAR      3  -2  78 CALM      29.87R
COOK           CLEAR     -2  -6  84 CALM      29.91R
WALKER         PTSUNNY    5   1  83 CALM      29.91R
$$
MNZ012-019>021-037-270800-
   Northeast Minnesota

CITY           SKY/WX    TMP DP  RH WIND       PRES   REMARKS
DULUTH         MOCLDY     6  -1  73 CALM      29.90R
ELY            CLEAR     -4  -8  84 CALM      29.90R
HIBBING        CLEAR     -4  -7  87 CALM      29.90R
EVELETH        CLEAR     -4  -9  77 CALM      29.92R
DULUTH HARBOR  CLOUDY    12   3  67 CALM      29.97R
TWO HARBORS    CLEAR      7  -2  66 CALM      29.91R
SILVER BAY     CLEAR      0  -4  85 CALM      29.92R
GRAND MARAIS     N/A     16   1  51 NW7       29.95R WCI   6
G MARAIS ARPRT CLEAR      1  -8  66 W3        29.86R
$$
MNZ029>031-032-039>041-046>048-054>057-064-270800-
   West Central Minnesota

CITY           SKY/WX    TMP DP  RH WIND       PRES   REMARKS
FERGUS FALLS   CLOUDY    18  10  73 CALM      29.95F
WHEATON        CLOUDY    21  18  86 E5        29.92S WCI  15
MORRIS         CLOUDY    19  18  93 E8        29.88F WCI   9
ALEXANDRIA     MOCLDY    20  16  84 SE6       29.89S WCI  12
ELBOW LAKE     CLOUDY    18  14  83 SE6       29.90S WCI  10
WADENA         CLOUDY    16  10  79 CALM      29.90S
GLENWOOD       CLOUDY    19  18  93 E3        29.89F
APPLETON       CLOUDY    27  19  74 E7        29.88F WCI  19
BENSON         CLOUDY    25  16  68 SE6       29.91S WCI  18
ORTONVILLE       N/A     25  18  74 CALM      29.86F
MADISON        CLOUDY    28  25  86 CALM      29.88S
WILLMAR        MOCLDY    27  21  80 E6        29.91F WCI  20
$$
MNZ033>034-036-042>043-049>051-058-059-270800-
   Central Minnesota

CITY           SKY/WX    TMP DP  RH WIND       PRES   REMARKS
ST CLOUD       CLOUDY    25  18  74 CALM      29.93S
SAUK CENTRE    LGT SNOW  21  19  90 CALM      29.92S
PAYNESVILLE    CLOUDY    26  17  68 CALM      29.92S
AITKIN         MIX PCPN  18  10  73 CALM      29.92S
PINE RIVER     CLOUDY    14  10  85 CALM      29.95S
BRAINERD       CLOUDY    17  11  77 CALM      29.93S
STAPLES        CLOUDY    16   9  73 CALM      29.91S
LONG PRAIRIE   LGT SNOW  21  18  86 E5        29.91F WCI  15
LITTLE FALLS   CLOUDY    23  10  58 CALM      29.93S
LITCHFIELD     CLOUDY    27  21  80 CALM      29.92F
BUFFALO        CLOUDY    27  19  71 CALM      29.95S
MAPLE LAKE     CLOUDY    28  21  77 E3        29.94S
HUTCHINSON     CLOUDY    28  24  86 SE5       29.93F WCI  22
$$
MNZ037-044-045-052-053-270800-
   East Central Minnesota

CITY           SKY/WX    TMP DP  RH WIND       PRES   REMARKS
PRINCETON      CLOUDY    27  18  69 CALM      29.95R
MORA           CLOUDY    23  12  63 CALM      29.97R
CAMBRIDGE      FLURRIES  28  14  54 S3        29.94R
RUSH CITY      CLOUDY    25  10  54 CALM      29.96R
MOOSE LAKE     CLOUDY    12   5  73 CALM      29.94R
HINCKLEY       CLOUDY    21  14  73 CALM      29.95R
CLOQUET        CLOUDY     3  -2  78 CALM      29.92R
MCGREGOR       CLOUDY    14   9  79 CALM      29.94R
$$
MNZ071>073-080-081-089-090-097-098-270800-
   Southwest Minnesota

CITY           SKY/WX    TMP DP  RH WIND       PRES   REMARKS
MONTEVIDEO     CLOUDY    27  23  86 S3        29.90F
GRANITE FALLS  CLOUDY    29  26  88 SE3       29.91S
CANBY          CLOUDY    29  25  86 CALM      29.88S
MARSHALL       PTCLDY    32  23  69 SW16G23   29.88F WCI  21
REDWOOD FALLS  CLOUDY    26  22  84 S6        29.90F WCI  19
OLIVIA         MOCLDY    30  27  86 SE6       29.90S WCI  24
PIPESTONE      CLEAR     28  19  69 SW10      29.87F WCI  19
WINDOM         CLEAR     28  25  86 SW12      29.92S WCI  18
WORTHINGTON    CLEAR     27  23  85 S15       29.92S WCI  15
JACKSON        CLEAR     25  21  86 S9        29.94S WCI  15
TRACY          CLEAR     31  25  78 SW14      29.89S WCI  21
SLAYTON        CLEAR     27  23  85 SW12      29.90S WCI  17
$$
MNZ065>067-074>077-082>085-091>093-270800-
   South Central Minnesota

CITY           SKY/WX    TMP DP  RH WIND       PRES   REMARKS
MANKATO          N/A     21  19  92 S7        29.96S WCI  12
NEW ULM        CLEAR     28  23  80 S8        29.92F WCI  20
ST JAMES       CLEAR     27  23  86 S8        29.95S WCI  18
FAIRMONT       CLEAR     19  16  88 S9        29.96S WCI   8
GLENCOE        CLOUDY    28  25  87 SE5       29.93S WCI  23
FARIBAULT      CLEAR     21  19  93 S5        29.97R WCI  15
OWATONNA       CLEAR     21  18  86 S9        29.96S WCI  11
WASECA         CLEAR     19  16  86 S7        29.97S WCI  10
ALBERT LEA     CLEAR     21  19  93 S3        29.97S
$$
MNZ078>079-086>088-094>096-270800-
   Southeast Minnesota

CITY           SKY/WX    TMP DP  RH WIND       PRES   REMARKS
ROCHESTER      CLEAR     15  14  95 S10       29.97R WCI   2
RED WING       CLEAR     23  18  80 CALM      29.98S
STANTON        CLEAR     24  20  86 S6        29.96R WCI  17
WINONA         CLEAR     23  21  93 CALM      30.03R
AUSTIN         CLEAR    N/A N/A N/A CALM        N/A
PRESTON        CLEAR     20  18  91 SW9       29.99S WCI   9
$$
ABBREVIATIONS USED IN REMARKS
   TC - TEMPERATURES IN CELSIUS
  WCI - WIND CHILL INDEX
   HX - HEAT INDEX
  VSB - VISIBILITY
$$




USA.gov is the U.S. government's official web portal to all federal, state and local government web resources and services.